TimeCST,TemperatureF,Dew PointF,Humidity,Sea Level PressureIn,VisibilityMPH,Wind Direction,Wind SpeedMPH,Gust SpeedMPH,PrecipitationIn,Events,Conditions,WindDirDegrees,DateUTC
12:15 AM,41.0,24.8,53,30.12,10.0,Calm,Calm,-,N/A,,Clear,0,2013-11-15 06:15:00
12:55 AM,41.0,24.8,53,30.11,10.0,Calm,Calm,-,N/A,,Clear,0,2013-11-15 06:55:00
1:15 AM,41.0,24.8,53,30.11,10.0,Calm,Calm,-,N/A,,Clear,0,2013-11-15 07:15:00
1:35 AM,41.0,24.8,53,30.11,10.0,Calm,Calm,-,N/A,,Clear,0,2013-11-15 07:35:00
1:55 AM,41.0,24.8,53,30.11,10.0,Calm,Calm,-,N/A,,Clear,0,2013-11-15 07:55:00
2:15 AM,41.0,24.8,53,30.10,10.0,South,3.5,-,N/A,,Clear,170,2013-11-15 08:15:00
2:35 AM,39.2,24.8,56,30.09,10.0,SSE,4.6,-,N/A,,Clear,150,2013-11-15 08:35:00
2:55 AM,41.0,24.8,53,30.10,10.0,Calm,Calm,-,N/A,,Clear,0,2013-11-15 08:55:00
3:15 AM,41.0,23.0,49,30.09,10.0,Calm,Calm,-,N/A,,Clear,0,2013-11-15 09:15:00
3:35 AM,39.2,24.8,56,30.09,10.0,Calm,Calm,-,N/A,,Clear,0,2013-11-15 09:35:00
3:55 AM,39.2,24.8,56,30.10,10.0,Calm,Calm,-,N/A,,Clear,0,2013-11-15 09:55:00
4:15 AM,37.4,24.8,60,30.09,10.0,Calm,Calm,-,N/A,,Clear,0,2013-11-15 10:15:00
4:35 AM,39.2,24.8,56,30.10,10.0,Calm,Calm,-,N/A,,Clear,0,2013-11-15 10:35:00
4:55 AM,39.2,24.8,56,30.10,10.0,Calm,Calm,-,N/A,,Clear,0,2013-11-15 10:55:00
5:15 AM,37.4,26.6,65,30.11,10.0,Calm,Calm,-,N/A,,Clear,0,2013-11-15 11:15:00
5:35 AM,39.2,26.6,61,30.11,10.0,Calm,Calm,-,N/A,,Clear,0,2013-11-15 11:35:00
5:55 AM,39.2,26.6,61,30.11,10.0,Calm,Calm,-,N/A,,Clear,0,2013-11-15 11:55:00
6:15 AM,39.2,26.6,61,30.11,10.0,SSE,3.5,-,N/A,,Clear,160,2013-11-15 12:15:00
6:35 AM,39.2,26.6,61,30.11,10.0,Calm,Calm,-,N/A,,Clear,0,2013-11-15 12:35:00
6:55 AM,41.0,26.6,57,30.10,10.0,Calm,Calm,-,N/A,,Scattered Clouds,0,2013-11-15 12:55:00
7:15 AM,41.0,26.6,57,30.11,10.0,South,3.5,-,N/A,,Mostly Cloudy,170,2013-11-15 13:15:00
7:35 AM,41.0,26.6,57,30.11,10.0,Calm,Calm,-,N/A,,Overcast,0,2013-11-15 13:35:00
7:55 AM,41.0,26.6,57,30.11,10.0,South,3.5,-,N/A,,Overcast,180,2013-11-15 13:55:00
8:15 AM,41.0,26.6,57,30.11,10.0,Calm,Calm,-,N/A,,Overcast,0,2013-11-15 14:15:00
8:35 AM,41.0,28.4,61,30.11,10.0,South,3.5,-,N/A,,Overcast,170,2013-11-15 14:35:00
8:55 AM,42.8,28.4,57,30.11,10.0,South,3.5,-,N/A,,Overcast,170,2013-11-15 14:55:00
9:15 AM,42.8,28.4,57,30.12,10.0,Calm,Calm,-,N/A,,Overcast,0,2013-11-15 15:15:00
9:35 AM,44.6,28.4,53,30.12,10.0,South,5.8,-,N/A,,Overcast,180,2013-11-15 15:35:00
9:55 AM,44.6,28.4,53,30.13,10.0,South,6.9,-,N/A,,Overcast,180,2013-11-15 15:55:00
10:15 AM,46.4,28.4,50,30.12,10.0,South,6.9,-,N/A,,Overcast,180,2013-11-15 16:15:00
10:35 AM,46.4,28.4,50,30.12,10.0,SSW,6.9,-,N/A,,Overcast,200,2013-11-15 16:35:00
10:55 AM,48.2,28.4,46,30.12,10.0,South,9.2,-,N/A,,Overcast,190,2013-11-15 16:55:00
11:15 AM,50.0,30.2,47,30.11,10.0,SSW,6.9,-,N/A,,Overcast,200,2013-11-15 17:15:00
11:35 AM,50.0,30.2,47,30.10,10.0,SSW,5.8,-,N/A,,Overcast,210,2013-11-15 17:35:00
11:55 AM,50.0,30.2,47,30.08,10.0,Calm,Calm,-,N/A,,Mostly Cloudy,0,2013-11-15 17:55:00
12:15 PM,51.8,30.2,44,30.07,10.0,South,4.6,-,N/A,,Scattered Clouds,170,2013-11-15 18:15:00
12:35 PM,51.8,30.2,44,30.06,10.0,South,4.6,-,N/A,,Mostly Cloudy,170,2013-11-15 18:35:00
12:55 PM,51.8,30.2,44,30.06,10.0,Calm,Calm,-,N/A,,Overcast,0,2013-11-15 18:55:00
1:15 PM,51.8,30.2,44,30.05,10.0,SSW,9.2,-,N/A,,Mostly Cloudy,200,2013-11-15 19:15:00
1:35 PM,51.8,30.2,44,30.05,10.0,Calm,Calm,-,N/A,,Mostly Cloudy,0,2013-11-15 19:35:00
1:55 PM,53.6,32.0,44,30.05,10.0,Calm,Calm,-,N/A,,Overcast,0,2013-11-15 19:55:00
2:15 PM,55.4,32.0,41,30.04,10.0,SSE,9.2,-,N/A,,Overcast,160,2013-11-15 20:15:00
2:35 PM,53.6,32.0,44,30.04,10.0,South,8.1,-,N/A,,Scattered Clouds,170,2013-11-15 20:35:00
2:55 PM,51.8,33.8,50,30.03,10.0,South,4.6,-,N/A,,Scattered Clouds,170,2013-11-15 20:55:00
3:15 PM,50.0,33.8,54,30.03,10.0,South,9.2,-,N/A,Rain,Light Rain,170,2013-11-15 21:15:00
3:35 PM,50.0,35.6,58,30.04,10.0,South,5.8,-,N/A,,Overcast,170,2013-11-15 21:35:00
3:55 PM,50.0,35.6,58,30.04,10.0,Calm,Calm,-,N/A,,Overcast,0,2013-11-15 21:55:00
4:15 PM,50.0,35.6,58,30.03,10.0,SSE,4.6,-,N/A,,Mostly Cloudy,160,2013-11-15 22:15:00
4:35 PM,48.2,35.6,62,30.04,10.0,SSE,6.9,-,N/A,,Overcast,160,2013-11-15 22:35:00
4:55 PM,48.2,35.6,62,30.04,10.0,SSE,5.8,-,N/A,,Overcast,150,2013-11-15 22:55:00
5:15 PM,46.4,35.6,66,30.04,10.0,SSE,8.1,-,N/A,,Overcast,150,2013-11-15 23:15:00
5:35 PM,46.4,35.6,66,30.05,10.0,SE,8.1,-,N/A,,Overcast,140,2013-11-15 23:35:00
5:55 PM,46.4,37.4,71,30.05,10.0,SE,9.2,-,N/A,,Overcast,140,2013-11-15 23:55:00
6:15 PM,46.4,37.4,71,30.06,10.0,SSE,10.4,-,N/A,,Overcast,150,2013-11-16 00:15:00
6:35 PM,46.4,37.4,71,30.05,10.0,SE,9.2,-,N/A,,Overcast,140,2013-11-16 00:35:00
6:55 PM,46.4,37.4,71,30.05,10.0,SE,9.2,-,N/A,,Overcast,140,2013-11-16 00:55:00
7:15 PM,46.4,39.2,76,30.05,10.0,SE,10.4,-,N/A,,Overcast,140,2013-11-16 01:15:00
7:35 PM,46.4,41.0,81,30.05,10.0,SSE,8.1,-,N/A,,Overcast,150,2013-11-16 01:35:00
7:55 PM,44.6,41.0,87,30.06,10.0,SSE,9.2,-,N/A,,Overcast,150,2013-11-16 01:55:00
8:15 PM,44.6,41.0,87,30.05,10.0,SE,10.4,-,N/A,,Overcast,140,2013-11-16 02:15:00
8:35 PM,44.6,41.0,87,30.05,10.0,SSE,8.1,-,N/A,,Overcast,150,2013-11-16 02:35:00
8:55 PM,46.4,41.0,81,30.05,10.0,SSE,9.2,-,N/A,,Overcast,150,2013-11-16 02:55:00
9:15 PM,46.4,41.0,81,30.04,10.0,SSE,10.4,-,N/A,,Overcast,150,2013-11-16 03:15:00
9:35 PM,46.4,41.0,81,30.03,10.0,SE,11.5,-,N/A,,Overcast,130,2013-11-16 03:35:00
9:55 PM,44.6,41.0,87,30.03,10.0,SSE,8.1,-,N/A,,Mostly Cloudy,150,2013-11-16 03:55:00
10:15 PM,44.6,41.0,87,30.04,10.0,SSE,8.1,-,N/A,,Scattered Clouds,150,2013-11-16 04:15:00
10:35 PM,44.6,41.0,87,30.04,10.0,SE,8.1,-,N/A,,Mostly Cloudy,140,2013-11-16 04:35:00
10:55 PM,44.6,41.0,87,30.04,10.0,SSE,6.9,-,N/A,,Overcast,150,2013-11-16 04:55:00
11:15 PM,44.6,42.8,93,30.04,10.0,SSE,6.9,-,N/A,,Overcast,150,2013-11-16 05:15:00
11:35 PM,46.4,42.8,87,30.04,10.0,SSE,5.8,-,N/A,,Overcast,160,2013-11-16 05:35:00
11:55 PM,46.4,42.8,87,30.04,10.0,SSE,5.8,-,N/A,,Overcast,160,2013-11-16 05:55:00